Time,TemperatureF,DewpointF,PressureIn,WindDirection,WindDirectionDegrees,WindSpeedMPH,WindSpeedGustMPH,Humidity,HourlyPrecipIn,Conditions,Clouds,dailyrainin,SolarRadiationWatts/m^2,SoftwareType,DateUTC
2013-05-04 00:02:00,46.0,36.0,-100.00,NE,48,4.0,6.0,69,0.00,,,0.03,0.000000,,2013-05-04 04:02:00,
2013-05-04 00:33:00,46.0,38.0,-100.00,ENE,58,2.0,5.0,73,0.00,,,0.03,0.000000,,2013-05-04 04:33:00,
2013-05-04 00:43:00,46.0,38.0,-100.00,ENE,58,2.0,5.0,73,0.00,,,0.03,0.000000,,2013-05-04 04:43:00,
2013-05-04 00:53:00,46.0,38.0,-100.00,ENE,58,2.0,5.0,73,0.00,,,0.03,0.000000,,2013-05-04 04:53:00,
2013-05-04 01:02:00,46.0,38.0,-100.00,ENE,58,2.0,5.0,73,0.00,,,0.03,0.000000,,2013-05-04 05:02:00,
2013-05-04 01:32:00,51.0,41.0,-100.00,ESE,110,3.0,6.0,69,0.00,,,0.03,0.000000,,2013-05-04 05:32:00,
2013-05-04 01:43:00,51.0,41.0,-100.00,ESE,110,3.0,6.0,69,0.00,,,0.03,0.000000,,2013-05-04 05:43:00,
2013-05-04 01:52:00,51.0,41.0,-100.00,ESE,110,3.0,6.0,69,0.00,,,0.03,0.000000,,2013-05-04 05:52:00,
2013-05-04 02:01:00,51.0,41.0,-100.00,ESE,110,3.0,6.0,69,0.00,,,0.03,0.000000,,2013-05-04 06:01:00,
2013-05-04 02:22:00,51.0,41.0,-100.00,ESE,113,3.0,6.0,68,0.00,,,0.03,0.000000,,2013-05-04 06:22:00,
2013-05-04 02:32:00,51.0,41.0,-100.00,ESE,113,3.0,6.0,68,0.00,,,0.03,0.000000,,2013-05-04 06:32:00,
2013-05-04 02:42:00,51.0,41.0,-100.00,ESE,113,3.0,6.0,68,0.00,,,0.03,0.000000,,2013-05-04 06:42:00,
2013-05-04 02:52:00,51.0,41.0,-100.00,ESE,113,3.0,6.0,68,0.00,,,0.03,0.000000,,2013-05-04 06:52:00,
2013-05-04 03:01:00,51.0,41.0,-100.00,ESE,113,3.0,6.0,68,0.00,,,0.03,0.000000,,2013-05-04 07:01:00,
2013-05-04 03:32:00,47.0,41.0,-100.00,East,100,2.0,4.0,78,0.00,,,0.03,0.000000,,2013-05-04 07:32:00,
2013-05-04 03:42:00,47.0,41.0,-100.00,East,100,2.0,4.0,78,0.00,,,0.03,0.000000,,2013-05-04 07:42:00,
2013-05-04 03:52:00,47.0,41.0,-100.00,East,100,2.0,4.0,78,0.00,,,0.03,0.000000,,2013-05-04 07:52:00,
2013-05-04 04:02:00,47.0,41.0,-100.00,East,100,2.0,4.0,78,0.00,,,0.03,0.000000,,2013-05-04 08:02:00,
2013-05-04 04:32:00,49.0,41.0,-100.00,SE,124,3.0,7.0,74,0.00,,,0.03,0.000000,,2013-05-04 08:32:00,
2013-05-04 04:42:00,49.0,41.0,-100.00,SE,124,3.0,7.0,74,0.00,,,0.03,0.000000,,2013-05-04 08:42:00,
2013-05-04 04:52:00,49.0,41.0,-100.00,SE,124,3.0,7.0,74,0.00,,,0.03,0.000000,,2013-05-04 08:52:00,
2013-05-04 05:02:00,49.0,41.0,-100.00,SE,124,3.0,7.0,74,0.00,,,0.03,0.000000,,2013-05-04 09:02:00,
2013-05-04 05:33:00,45.0,39.0,-100.00,East,101,2.0,6.0,78,0.00,,,0.00,0.000000,,2013-05-04 09:33:00,
2013-05-04 05:42:00,45.0,39.0,-100.00,East,101,2.0,6.0,78,0.00,,,0.00,0.000000,,2013-05-04 09:42:00,
2013-05-04 05:53:00,45.0,39.0,-100.00,East,101,2.0,6.0,78,0.00,,,0.00,0.000000,,2013-05-04 09:53:00,
2013-05-04 06:03:00,45.0,39.0,-100.00,East,101,2.0,6.0,78,0.00,,,0.00,0.000000,,2013-05-04 10:03:00,
2013-05-04 06:23:00,44.0,40.0,-100.00,East,79,3.0,5.0,85,0.00,,,0.00,0.000000,,2013-05-04 10:23:00,
2013-05-04 06:33:00,44.0,40.0,-100.00,East,79,3.0,5.0,85,0.00,,,0.00,0.000000,,2013-05-04 10:33:00,
2013-05-04 06:42:00,44.0,40.0,-100.00,East,79,3.0,5.0,85,0.00,,,0.00,0.000000,,2013-05-04 10:42:00,
2013-05-04 06:53:00,44.0,40.0,-100.00,East,79,3.0,5.0,85,0.00,,,0.00,0.000000,,2013-05-04 10:53:00,
2013-05-04 07:02:00,44.0,40.0,-100.00,East,79,3.0,5.0,85,0.00,,,0.00,0.000000,,2013-05-04 11:02:00,
2013-05-04 07:04:00,45.0,40.0,-100.00,ENE,65,3.0,5.0,82,0.00,,,0.00,13.000000,,2013-05-04 11:04:00,
2013-05-04 07:22:00,45.0,40.0,-100.00,ENE,65,3.0,5.0,82,0.00,,,0.00,13.000000,,2013-05-04 11:22:00,
2013-05-04 07:32:00,45.0,40.0,-100.00,ENE,65,3.0,5.0,82,0.00,,,0.00,13.000000,,2013-05-04 11:32:00,
2013-05-04 07:46:00,45.0,40.0,-100.00,ENE,65,3.0,5.0,82,0.00,,,0.00,13.000000,,2013-05-04 11:46:00,
2013-05-04 08:03:00,45.0,40.0,-100.00,ENE,65,3.0,5.0,82,0.00,,,0.00,13.000000,,2013-05-04 12:03:00,
2013-05-04 08:37:00,53.0,44.0,-100.00,ESE,104,4.0,6.0,71,0.00,,,0.00,108.000000,,2013-05-04 12:37:00,
2013-05-04 08:52:00,53.0,44.0,-100.00,ESE,104,4.0,6.0,71,0.00,,,0.00,108.000000,,2013-05-04 12:52:00,
2013-05-04 09:01:00,53.0,44.0,-100.00,ESE,104,4.0,6.0,71,0.00,,,0.00,108.000000,,2013-05-04 13:01:00,
2013-05-04 09:32:00,57.0,42.0,-100.00,SE,139,5.0,9.0,58,0.00,,,0.00,331.000000,,2013-05-04 13:32:00,
2013-05-04 09:42:00,57.0,42.0,-100.00,SE,139,5.0,9.0,58,0.00,,,0.00,331.000000,,2013-05-04 13:42:00,
2013-05-04 09:53:00,57.0,42.0,-100.00,SE,139,5.0,9.0,58,0.00,,,0.00,331.000000,,2013-05-04 13:53:00,
2013-05-04 10:02:00,57.0,42.0,-100.00,SE,139,5.0,9.0,58,0.00,,,0.00,331.000000,,2013-05-04 14:02:00,
2013-05-04 10:22:00,63.0,45.0,-100.00,SSE,150,5.0,8.0,51,0.00,,,0.00,514.000000,,2013-05-04 14:22:00,
2013-05-04 10:32:00,63.0,45.0,-100.00,SSE,150,5.0,8.0,51,0.00,,,0.00,514.000000,,2013-05-04 14:32:00,
2013-05-04 10:42:00,63.0,45.0,-100.00,SSE,150,5.0,8.0,51,0.00,,,0.00,514.000000,,2013-05-04 14:42:00,
2013-05-04 10:52:00,63.0,45.0,-100.00,SSE,150,5.0,8.0,51,0.00,,,0.00,514.000000,,2013-05-04 14:52:00,
2013-05-04 11:02:00,63.0,45.0,-100.00,SSE,150,5.0,8.0,51,0.00,,,0.00,514.000000,,2013-05-04 15:02:00,
2013-05-04 11:22:00,68.0,45.0,-100.00,SSE,159,5.0,8.0,44,0.00,,,0.00,640.000000,,2013-05-04 15:22:00,
2013-05-04 11:33:00,68.0,45.0,-100.00,SSE,159,5.0,8.0,44,0.00,,,0.00,640.000000,,2013-05-04 15:33:00,
2013-05-04 11:43:00,68.0,45.0,-100.00,SSE,159,5.0,8.0,44,0.00,,,0.00,640.000000,,2013-05-04 15:43:00,
2013-05-04 11:53:00,68.0,45.0,-100.00,SSE,159,5.0,8.0,44,0.00,,,0.00,640.000000,,2013-05-04 15:53:00,
2013-05-04 12:03:00,68.0,45.0,-100.00,SSE,159,5.0,8.0,44,0.00,,,0.00,640.000000,,2013-05-04 16:03:00,
2013-05-04 12:33:00,72.0,44.0,-100.00,SE,142,6.0,11.0,37,0.00,,,0.00,782.000000,,2013-05-04 16:33:00,
2013-05-04 12:42:00,72.0,44.0,-100.00,SE,142,6.0,11.0,37,0.00,,,0.00,782.000000,,2013-05-04 16:42:00,
2013-05-04 12:52:00,72.0,44.0,-100.00,SE,142,6.0,11.0,37,0.00,,,0.00,782.000000,,2013-05-04 16:52:00,
2013-05-04 13:02:00,72.0,44.0,-100.00,SE,142,6.0,11.0,37,0.00,,,0.00,782.000000,,2013-05-04 17:02:00,
2013-05-04 13:33:00,76.0,46.0,-100.00,SSE,159,6.0,12.0,34,0.00,,,0.00,877.000000,,2013-05-04 17:33:00,
2013-05-04 13:42:00,76.0,46.0,-100.00,SSE,159,6.0,12.0,34,0.00,,,0.00,877.000000,,2013-05-04 17:42:00,
2013-05-04 13:52:00,76.0,46.0,-100.00,SSE,159,6.0,12.0,34,0.00,,,0.00,877.000000,,2013-05-04 17:52:00,
2013-05-04 14:01:00,76.0,46.0,-100.00,SSE,159,6.0,12.0,34,0.00,,,0.00,877.000000,,2013-05-04 18:01:00,
2013-05-04 14:32:00,78.0,44.0,-100.00,SE,144,7.0,15.0,30,0.00,,,0.00,952.000000,,2013-05-04 18:32:00,
2013-05-04 14:42:00,78.0,44.0,-100.00,SE,144,7.0,15.0,30,0.00,,,0.00,952.000000,,2013-05-04 18:42:00,
2013-05-04 14:52:00,78.0,44.0,-100.00,SE,144,7.0,15.0,30,0.00,,,0.00,952.000000,,2013-05-04 18:52:00,
2013-05-04 15:01:00,78.0,44.0,-100.00,SE,144,7.0,15.0,30,0.00,,,0.00,952.000000,,2013-05-04 19:01:00,
2013-05-04 15:32:00,78.0,43.0,-100.00,SE,137,6.0,14.0,29,0.00,,,0.00,708.000000,,2013-05-04 19:32:00,
2013-05-04 15:42:00,78.0,43.0,-100.00,SE,137,6.0,14.0,29,0.00,,,0.00,708.000000,,2013-05-04 19:42:00,
2013-05-04 15:52:00,78.0,43.0,-100.00,SE,137,6.0,14.0,29,0.00,,,0.00,708.000000,,2013-05-04 19:52:00,
2013-05-04 16:02:00,78.0,43.0,-100.00,SE,137,6.0,14.0,29,0.00,,,0.00,708.000000,,2013-05-04 20:02:00,
2013-05-04 16:32:00,77.0,42.0,-100.00,SE,143,8.0,15.0,29,0.00,,,0.00,636.000000,,2013-05-04 20:32:00,
2013-05-04 16:42:00,77.0,42.0,-100.00,SE,143,8.0,15.0,29,0.00,,,0.00,636.000000,,2013-05-04 20:42:00,
2013-05-04 16:52:00,77.0,42.0,-100.00,SE,143,8.0,15.0,29,0.00,,,0.00,636.000000,,2013-05-04 20:52:00,
2013-05-04 17:02:00,77.0,42.0,-100.00,SE,143,8.0,15.0,29,0.00,,,0.00,636.000000,,2013-05-04 21:02:00,
2013-05-04 17:33:00,76.0,41.0,-100.00,SSE,148,8.0,15.0,29,0.00,,,0.00,687.000000,,2013-05-04 21:33:00,
2013-05-04 17:43:00,76.0,41.0,-100.00,SSE,148,8.0,15.0,29,0.00,,,0.00,687.000000,,2013-05-04 21:43:00,
2013-05-04 17:53:00,76.0,41.0,-100.00,SSE,148,8.0,15.0,29,0.00,,,0.00,687.000000,,2013-05-04 21:53:00,
2013-05-04 18:03:00,76.0,41.0,-100.00,SSE,148,8.0,15.0,29,0.00,,,0.00,687.000000,,2013-05-04 22:03:00,
2013-05-04 18:22:00,73.0,38.0,-100.00,East,79,6.0,16.0,28,0.00,,,-99.99,336.000000,,2013-05-04 22:22:00,
2013-05-04 18:33:00,73.0,38.0,-100.00,East,79,6.0,16.0,28,0.00,,,-99.99,336.000000,,2013-05-04 22:33:00,
2013-05-04 18:43:00,73.0,38.0,-100.00,East,79,6.0,16.0,28,0.00,,,-99.99,336.000000,,2013-05-04 22:43:00,
2013-05-04 18:52:00,73.0,38.0,-100.00,East,79,6.0,16.0,28,0.00,,,-99.99,336.000000,,2013-05-04 22:52:00,
2013-05-04 19:02:00,73.0,38.0,-100.00,East,79,6.0,16.0,28,0.00,,,-99.99,336.000000,,2013-05-04 23:02:00,
2013-05-04 19:22:00,71.0,39.0,-100.00,SE,124,5.0,14.0,31,0.00,,,-99.99,172.000000,,2013-05-04 23:22:00,
2013-05-04 19:32:00,71.0,39.0,-100.00,SE,124,5.0,14.0,31,0.00,,,-99.99,172.000000,,2013-05-04 23:32:00,
2013-05-04 19:42:00,71.0,39.0,-100.00,SE,124,5.0,14.0,31,0.00,,,-99.99,172.000000,,2013-05-04 23:42:00,
2013-05-04 19:52:00,71.0,39.0,-100.00,SE,124,5.0,14.0,31,0.00,,,-99.99,172.000000,,2013-05-04 23:52:00,
2013-05-04 20:02:00,71.0,39.0,-100.00,SE,124,5.0,14.0,31,0.00,,,-99.99,172.000000,,2013-05-05 00:02:00,
2013-05-04 20:32:00,65.0,39.0,-100.00,SE,139,6.0,11.0,39,0.00,,,0.00,73.000000,,2013-05-05 00:32:00,
2013-05-04 20:42:00,65.0,39.0,-100.00,SE,139,6.0,11.0,39,0.00,,,0.00,73.000000,,2013-05-05 00:42:00,
2013-05-04 20:52:00,65.0,39.0,-100.00,SE,139,6.0,11.0,39,0.00,,,0.00,73.000000,,2013-05-05 00:52:00,
2013-05-04 21:01:00,65.0,39.0,-100.00,SE,139,6.0,11.0,39,0.00,,,0.00,73.000000,,2013-05-05 01:01:00,
2013-05-04 21:22:00,61.0,38.0,-100.00,ESE,116,3.0,8.0,43,0.00,,,0.00,14.000000,,2013-05-05 01:22:00,
2013-05-04 21:32:00,61.0,38.0,-100.00,ESE,116,3.0,8.0,43,0.00,,,0.00,14.000000,,2013-05-05 01:32:00,
2013-05-04 21:42:00,61.0,38.0,-100.00,ESE,116,3.0,8.0,43,0.00,,,0.00,14.000000,,2013-05-05 01:42:00,
2013-05-04 21:52:00,61.0,38.0,-100.00,ESE,116,3.0,8.0,43,0.00,,,0.00,14.000000,,2013-05-05 01:52:00,
2013-05-04 22:02:00,61.0,38.0,-100.00,ESE,116,3.0,8.0,43,0.00,,,0.00,14.000000,,2013-05-05 02:02:00,
2013-05-04 22:32:00,50.0,36.0,-100.00,NE,50,4.0,5.0,59,0.00,,,0.00,0.000000,,2013-05-05 02:32:00,
2013-05-04 22:42:00,50.0,36.0,-100.00,NE,50,4.0,5.0,59,0.00,,,0.00,0.000000,,2013-05-05 02:42:00,
2013-05-04 22:52:00,50.0,36.0,-100.00,NE,50,4.0,5.0,59,0.00,,,0.00,0.000000,,2013-05-05 02:52:00,
2013-05-04 23:01:00,50.0,36.0,-100.00,NE,50,4.0,5.0,59,0.00,,,0.00,0.000000,,2013-05-05 03:01:00,
2013-05-04 23:22:00,43.0,36.0,-100.00,NNE,16,2.0,6.0,75,0.00,,,0.00,0.000000,,2013-05-05 03:22:00,
2013-05-04 23:33:00,43.0,36.0,-100.00,NNE,16,2.0,6.0,75,0.00,,,0.00,0.000000,,2013-05-05 03:33:00,
2013-05-04 23:42:00,43.0,36.0,-100.00,NNE,16,2.0,6.0,75,0.00,,,0.00,0.000000,,2013-05-05 03:42:00,
2013-05-04 23:53:00,43.0,36.0,-100.00,NNE,16,2.0,6.0,75,0.00,,,0.00,0.000000,,2013-05-05 03:53:00,